• en France
  • Liste des pays
  • À 7 jours
  • Température de l'eau
  • Carte satellitaire
  • Carte météo
  • Widgets météo
  • user-avatar
    Se connecter

    Météo par heure à Perth

    Ce jour, 18 Octobre, Jeudi

    Heure Température Précipitation Vent Pression Humidité
    00:00 +17°C° 0.3 mm 7 m/s 752 mmHg 81%
    01:00 +17°C° 0.3 mm 7 m/s 752 mmHg 82%
    02:00 +16°C° 0 mm 6 m/s 751 mmHg 84%
    03:00 +16°C° 0.2 mm 6 m/s 752 mmHg 82%
    04:00 +15°C° 0.2 mm 6 m/s 752 mmHg 80%
    05:00 +15°C° 0.2 mm 7 m/s 752 mmHg 78%
    06:00 +15°C° 0.3 mm 7 m/s 752 mmHg 75%
    07:00 +15°C° 0.3 mm 7 m/s 753 mmHg 72%
    08:00 +15°C° 0 mm 7 m/s 753 mmHg 67%
    09:00 +15°C° 0.5 mm 7 m/s 754 mmHg 66%
    10:00 +15°C° 0.5 mm 7 m/s 754 mmHg 64%
    11:00 +15°C° 0.5 mm 8 m/s 754 mmHg 63%
    12:00 +16°C° 0.6 mm 8 m/s 754 mmHg 62%
    13:00 +16°C° 0.6 mm 8 m/s 754 mmHg 60%
    14:00 +16°C° 0 mm 7 m/s 755 mmHg 61%
    15:00 +15°C° 0.4 mm 7 m/s 755 mmHg 62%
    16:00 +15°C° 0.4 mm 7 m/s 756 mmHg 62%
    17:00 +15°C° 0.4 mm 7 m/s 756 mmHg 63%
    18:00 +14°C° 0.2 mm 7 m/s 757 mmHg 68%
    19:00 +13°C° 0.2 mm 6 m/s 758 mmHg 73%
    20:00 +11°C° 0 mm 3 m/s 759 mmHg 81%
    21:00 +11°C° 0.1 mm 3 m/s 759 mmHg 81%
    22:00 +11°C° 0.1 mm 3 m/s 760 mmHg 82%
    23:00 +11°C° 0.1 mm 3 m/s 760 mmHg 82%

    Demain, 19 Octobre, Vendredi

    Heure Température Précipitation Vent Pression Humidité
    00:00 +10°C° 0.1 mm 3 m/s 760 mmHg 81%
    01:00 +10°C° 0.1 mm 4 m/s 761 mmHg 81%
    02:00 +10°C° 0.1 mm 4 m/s 761 mmHg 81%
    03:00 +10°C° 0 mm 3 m/s 761 mmHg 80%
    04:00 +10°C° 0 mm 3 m/s 762 mmHg 80%
    05:00 +10°C° 0 mm 3 m/s 762 mmHg 80%
    06:00 +12°C° 0 mm 3 m/s 762 mmHg 74%
    07:00 +13°C° 0 mm 4 m/s 763 mmHg 68%
    08:00 +15°C° 0 mm 4 m/s 763 mmHg 62%
    09:00 +15°C° 0 mm 4 m/s 763 mmHg 58%
    10:00 +17°C° 0 mm 4 m/s 764 mmHg 55%
    11:00 +18°C° 0 mm 4 m/s 764 mmHg 51%
    12:00 +19°C° 0 mm 4 m/s 764 mmHg 50%
    13:00 +19°C° 0 mm 4 m/s 764 mmHg 50%
    14:00 +19°C° 0 mm 4 m/s 763 mmHg 49%
    15:00 +19°C° 0 mm 4 m/s 763 mmHg 51%
    16:00 +19°C° 0 mm 3 m/s 764 mmHg 53%
    17:00 +18°C° 0 mm 3 m/s 764 mmHg 55%
    18:00 +17°C° 0 mm 3 m/s 764 mmHg 61%
    19:00 +14°C° 0 mm 3 m/s 764 mmHg 66%
    20:00 +14°C° 0 mm 2 m/s 765 mmHg 72%
    21:00 +14°C° 0 mm 2 m/s 765 mmHg 74%
    22:00 +13°C° 0 mm 2 m/s 765 mmHg 76%
    23:00 +13°C° 0 mm 1 m/s 765 mmHg 78%

    Après-demain, 20 Octobre, Samedi

    Heure Température Précipitation Vent Pression Humidité
    00:00 +13°C° 0 mm 2 m/s 765 mmHg 79%
    01:00 +13°C° 0 mm 2 m/s 764 mmHg 80%
    02:00 +13°C° 0 mm 2 m/s 764 mmHg 81%
    03:00 +13°C° 0 mm 2 m/s 764 mmHg 82%
    04:00 +12°C° 0 mm 2 m/s 764 mmHg 84%
    05:00 +12°C° 0 mm 2 m/s 763 mmHg 85%
    06:00 +13°C° 0 mm 3 m/s 763 mmHg 79%
    07:00 +14°C° 0 mm 3 m/s 763 mmHg 74%
    08:00 +17°C° 0 mm 4 m/s 763 mmHg 68%
    09:00 +18°C° 0 mm 4 m/s 763 mmHg 65%
    10:00 +19°C° 0 mm 4 m/s 763 mmHg 63%
    11:00 +19°C° 0 mm 5 m/s 762 mmHg 61%
    12:00 +20°C° 0 mm 5 m/s 762 mmHg 60%
    13:00 +20°C° 0 mm 5 m/s 761 mmHg 59%
    14:00 +20°C° 0 mm 6 m/s 761 mmHg 59%
    15:00 +20°C° 0 mm 6 m/s 761 mmHg 61%
    16:00 +20°C° 0 mm 6 m/s 760 mmHg 63%
    17:00 +19°C° 0 mm 6 m/s 760 mmHg 65%
    18:00 +17°C° 0 mm 5 m/s 760 mmHg 70%
    19:00 +16°C° 0 mm 5 m/s 760 mmHg 75%
    20:00 +15°C° 0 mm 4 m/s 760 mmHg 79%
    21:00 +15°C° 0 mm 5 m/s 760 mmHg 80%
    22:00 +15°C° 0 mm 5 m/s 760 mmHg 80%
    23:00 +15°C° 0 mm 5 m/s 760 mmHg 80%

    21 Octobre, Dimanche

    Heure Température Précipitation Vent Pression Humidité
    00:00 +15°C° 0.1 mm 5 m/s 760 mmHg 80%
    01:00 +15°C° 0.1 mm 6 m/s 759 mmHg 80%
    02:00 +15°C° 0.1 mm 6 m/s 759 mmHg 80%
    03:00 +15°C° 0.1 mm 6 m/s 758 mmHg 79%
    04:00 +15°C° 0.1 mm 6 m/s 758 mmHg 79%
    05:00 +15°C° 0.1 mm 6 m/s 758 mmHg 78%
    06:00 +16°C° 0.1 mm 7 m/s 758 mmHg 76%
    07:00 +17°C° 0.1 mm 7 m/s 758 mmHg 74%
    08:00 +17°C° 0.1 mm 8 m/s 759 mmHg 72%
    09:00 +18°C° 0.3 mm 8 m/s 759 mmHg 73%
    10:00 +18°C° 0.3 mm 8 m/s 759 mmHg 73%
    11:00 +18°C° 0.3 mm 8 m/s 759 mmHg 74%
    12:00 +18°C° 0.1 mm 8 m/s 759 mmHg 70%
    13:00 +18°C° 0.1 mm 9 m/s 759 mmHg 66%
    14:00 +19°C° 0.1 mm 9 m/s 759 mmHg 62%
    15:00 +18°C° 0 mm 9 m/s 759 mmHg 62%
    16:00 +17°C° 0 mm 8 m/s 759 mmHg 62%
    17:00 +16°C° 0 mm 8 m/s 760 mmHg 62%
    18:00 +15°C° 0 mm 7 m/s 760 mmHg 64%
    19:00 +14°C° 0 mm 7 m/s 761 mmHg 65%
    20:00 +14°C° 0 mm 6 m/s 762 mmHg 67%
    21:00 +13°C° 0 mm 6 m/s 762 mmHg 69%
    22:00 +13°C° 0 mm 6 m/s 763 mmHg 70%
    23:00 +12°C° 0 mm 5 m/s 763 mmHg 71%

    22 Octobre, Lundi

    Heure Température Précipitation Vent Pression Humidité
    00:00 +10°C° 0 mm 5 m/s 763 mmHg 72%
    01:00 +11°C° 0 mm 4 m/s 763 mmHg 74%
    02:00 +10°C° 0 mm 3 m/s 763 mmHg 75%
    03:00 +10°C° 0 mm 3 m/s 763 mmHg 76%
    04:00 +9°C° 0 mm 3 m/s 764 mmHg 77%
    05:00 +9°C° 0 mm 2 m/s 764 mmHg 77%
    06:00 +10°C° 0 mm 2 m/s 764 mmHg 71%
    07:00 +13°C° 0 mm 2 m/s 765 mmHg 64%
    08:00 +14°C° 0 mm 2 m/s 765 mmHg 58%
    09:00 +14°C° 0 mm 3 m/s 765 mmHg 55%
    10:00 +16°C° 0 mm 3 m/s 765 mmHg 53%
    11:00 +17°C° 0 mm 3 m/s 765 mmHg 51%
    12:00 +17°C° 0 mm 3 m/s 765 mmHg 50%
    13:00 +18°C° 0 mm 3 m/s 765 mmHg 49%
    14:00 +18°C° 0 mm 3 m/s 764 mmHg 49%
    15:00 +18°C° 0 mm 3 m/s 764 mmHg 50%
    16:00 +18°C° 0 mm 4 m/s 764 mmHg 51%
    17:00 +17°C° 0 mm 4 m/s 764 mmHg 52%
    18:00 +16°C° 0 mm 3 m/s 765 mmHg 57%
    19:00 +14°C° 0 mm 3 m/s 765 mmHg 63%
    20:00 +13°C° 0 mm 3 m/s 765 mmHg 68%
    21:00 +12°C° 0 mm 3 m/s 765 mmHg 72%
    22:00 +11°C° 0 mm 3 m/s 765 mmHg 75%
    23:00 +10°C° 0 mm 3 m/s 765 mmHg 79%

    23 Octobre, Mardi

    Heure Température Précipitation Vent Pression Humidité
    00:00 +10°C° 0 mm 2 m/s 765 mmHg 80%
    01:00 +10°C° 0 mm 2 m/s 764 mmHg 81%
    02:00 +9°C° 0 mm 2 m/s 764 mmHg 82%
    03:00 +9°C° 0 mm 2 m/s 764 mmHg 82%
    04:00 +9°C° 0 mm 2 m/s 764 mmHg 82%
    05:00 +8°C° 0 mm 2 m/s 764 mmHg 82%
    06:00 +10°C° 0 mm 2 m/s 764 mmHg 74%
    07:00 +13°C° 0 mm 2 m/s 764 mmHg 66%
    08:00 +15°C° 0 mm 2 m/s 764 mmHg 58%
    09:00 +17°C° 0 mm 2 m/s 764 mmHg 52%
    10:00 +20°C° 0 mm 1 m/s 763 mmHg 46%
    11:00 +22°C° 0 mm 1 m/s 762 mmHg 40%
    12:00 +21°C° 0 mm 2 m/s 762 mmHg 40%
    13:00 +22°C° 0 mm 3 m/s 761 mmHg 41%
    14:00 +22°C° 0 mm 4 m/s 761 mmHg 41%
    15:00 +21°C° 0 mm 4 m/s 760 mmHg 46%
    16:00 +20°C° 0 mm 4 m/s 760 mmHg 50%
    17:00 +19°C° 0 mm 4 m/s 760 mmHg 55%
    18:00 +17°C° 0 mm 4 m/s 761 mmHg 61%
    19:00 +15°C° 0 mm 4 m/s 761 mmHg 67%
    20:00 +13°C° 0 mm 4 m/s 761 mmHg 74%
    21:00 +13°C° 0 mm 3 m/s 761 mmHg 77%
    22:00 +13°C° 0 mm 3 m/s 761 mmHg 80%
    23:00 +12°C° 0 mm 3 m/s 761 mmHg 83%
    Voir plus